www.pogodaiklimat.ru

Погода и климат >> Архив погоды >> Германия >> Берлин


АРХИВ ПОГОДЫ в Берлине

Время (UTC), дата Ветер
(напр.,м/с)
 
Видим.   Явления Облачность Т
(С)
Тd
(С)
f
(%)
Тe
(С)
Тes
(С)
Комфортность P
(гПа)
Po
(гПа)
Тmin
(С)
Tmax
(С)
R
(мм)
R24
(мм)
S
(см)
07 19.03 З 5-6
{7}
н/о н/о +3.7 +0.7 81 -1 -1 по сезону 1023.4 1017.3
08 19.03 З 5-7
{8}
н/о н/о +4.3 +0.8 78 -1 -1 по сезону 1024.0 1017.9
09 19.03 З 6 н/о н/о +5.7 +0.7 70 +1 +1 по сезону 1024.7 1018.6
10 19.03 СЗ 6-8
{9}
н/о н/о +6.5 -0.4 61 +2 +2 по сезону 1025.0 1018.9
11 19.03 З 6-10
{10}
н/о н/о +8.2 -0.6 54 +5 +5 по сезону 1025.3 1019.2
12 19.03 З 6-8
{10}
н/о н/о +7.2 -0.2 59 +3 +3 прохладно 1025.6 1019.5 0.0
13 19.03 СЗ 6-8
{11}
н/о н/о +8.4 -1.1 51 +5 +5 тепло 1025.7 1019.6
14 19.03 З 6-9
{10}
н/о н/о +7.7 -3.0 47 +4 +4 по сезону 1025.9 1019.8
15 19.03 З 5-8
{11}
н/о н/о +7.8 -1.5 52 +5 +5 по сезону 1026.3 1020.2 0.0
16 19.03 З 4-7
{8}
н/о н/о +7.8 -2.2 49 +5 +5 тепло 1026.7 1020.6
17 19.03 СЗ 6-8
{9}
н/о н/о +7.2 -1.1 56 +3 +3 по сезону 1027.3 1021.2
18 19.03 З 3 н/о н/о +6.2 -0.6 62 +3 +3 по сезону 1027.9 1021.8 +3.3 +9.1 0.0
19 19.03 З 3-4
{4}
н/о н/о +5.5 -0.6 65 +3 +3 тепло 1028.6 1022.5
20 19.03 ЮЗ 1-2
{4}
н/о н/о +4.7 -0.9 67 +4 +4 тепло 1029.2 1023.0
21 19.03 ЮЗ 1-2
{4}
н/о н/о +3.6 -1.0 72 +2 +2 по сезону 1030.0 1023.8
22 19.03 З 2-2
{2}
н/о н/о +3.0 -1.2 74 0 0 тепло 1030.6 1024.4
23 19.03 З 2-2
{2}
н/о н/о +2.9 -1.1 75 0 0 по сезону 1030.8 1024.6
00 20.03 ЮЗ 1 н/о н/о +2.6 -1.3 75 +1 +1 по сезону 1031.1 1024.9
01 20.03 штиль 0-1
{2}
н/о н/о +1.2 -1.8 80 0 0 тепло 1031.5 1025.2
02 20.03 З 1-2
{2}
н/о н/о +1.1 -1.5 83 -1 -1 по сезону 1031.4 1025.1
03 20.03 ЮЗ 1-1
{2}
н/о н/о +0.7 -1.6 85 -1 -1 по сезону 1031.6 1025.3
04 20.03 ЮЗ 1-2
{2}
н/о н/о +0.3 -1.7 86 -2 -2 тепло 1031.9 1025.6
05 20.03 ЮЗ 1-1
{2}
н/о н/о -0.2 -2.1 87 -2 -2 по сезону 1032.2 1025.9
06 20.03 ЮЗ 1 н/о н/о +0.1 -1.7 88 -2 -2 по сезону 1032.7 1026.4 -0.6 +6.3
07 20.03 ЮЗ 2-2
{2}
н/о н/о +2.3 -1.1 78 -1 -1 по сезону 1033.0 1026.8
08 20.03 ЮЗ 3-4
{4}
н/о н/о +5.5 -0.5 65 +3 +3 по сезону 1033.2 1027.0
09 20.03 З 3 н/о н/о +8.2 +0.1 57 +6 +6 по сезону 1033.3 1027.2
10 20.03 ЮЗ 4-6
{6}
н/о н/о +9.9 +0.7 53 +8 +8 тепло 1033.5 1027.4
11 20.03 ЮЗ 4-8
{8}
н/о н/о +10.9 +0.6 49 +9 +9 тепло 1033.3 1027.2
12 20.03 З 5-8
{8}
н/о н/о +12.0 +1.4 48 +10 +10 тепло 1032.9 1026.9
13 20.03 З 5-8
{9}
н/о н/о +12.9 +2.3 48 +11 +11 тепло 1032.6 1026.6
14 20.03 З 6-9
{9}
н/о н/о +12.2 +1.3 47 +10 +10 тепло 1032.3 1026.3
15 20.03 З 6-10
{10}
н/о н/о +12.4 +1.7 48 +10 +10 тепло 1032.2 1026.2
16 20.03 З 4-8
{9}
н/о н/о +12.5 +1.5 47 +11 +11 тепло 1031.7 1025.7
17 20.03 З 5-7
{8}
н/о н/о +12.2 +2.0 50 +10 +10 тепло 1031.8 1025.8
18 20.03 З 3 н/о н/о +12.0 +2.0 50 +11 +11 тепло 1032.4 1026.4 +0.1 +13.2
19 20.03 З 5-7
{9}
н/о н/о +11.6 +3.0 56 +9 +9 тепло 1032.7 1026.7
20 20.03 З 4-7
{9}
н/о н/о +11.3 +3.4 58 +9 +9 тепло 1032.7 1026.7
21 20.03 З 5-7
{9}
н/о н/о +11.1 +3.5 59 +9 +9 тепло 1032.9 1026.9
22 20.03 З 4-6
{7}
н/о н/о +10.7 +4.0 63 +8 +8 тепло 1033.7 1027.6
23 20.03 З 6-8
{9}
н/о н/о +10.1 +6.0 76 +7 +7 тепло 1033.8 1027.7
00 21.03 З 4 н/о н/о +10.0 +5.8 75 +7 +7 тепло 1033.8 1027.7
01 21.03 З 4-5
{5}
н/о н/о +9.7 +6.0 78 +7 +7 тепло 1033.8 1027.7
02 21.03 З 3-4
{6}
н/о н/о +9.7 +6.2 79 +7 +7 тепло 1033.6 1027.5
03 21.03 З 2-4
{6}
н/о н/о +9.6 +6.3 80 +8 +8 тепло 1033.2 1027.1
04 21.03 З 2-4
{4}
н/о н/о +9.6 +6.2 79 +8 +8 тепло 1033.4 1027.3
05 21.03 З 3-4
{4}
н/о н/о +9.7 +6.0 78 +8 +8 тепло 1033.5 1027.4
06 21.03 З 3 н/о н/о +9.7 +6.1 78 +8 +8 тепло 1033.6 1027.5 +9.5 +11.9
07 21.03 З 3-4
{5}
н/о н/о +9.9 +6.2 78 +8 +8 тепло 1034.2 1028.1
08 21.03 З 3-5
{5}
н/о н/о +10.3 +6.5 77 +8 +8 тепло 1034.6 1028.5
09 21.03 З 4 н/о н/о +10.3 +6.7 78 +8 +8 тепло 1034.8 1028.7
10 21.03 З 3-5
{6}
н/о н/о +10.8 +6.7 76 +9 +9 тепло 1034.8 1028.7
11 21.03 З 5-7
{7}
н/о н/о +11.1 +6.7 74 +8 +8 тепло 1034.6 1028.6
12 21.03 З 5-6
{8}
н/о н/о +11.3 +6.8 74 +9 +9 по сезону 1034.2 1028.2
13 21.03 З 4-6
{7}
н/о н/о +11.6 +6.9 73 +10 +10 тепло 1033.9 1027.9
14 21.03 З 4-6
{7}
н/о н/о +11.8 +7.2 73 +10 +10 тепло 1033.4 1027.4
15 21.03 З 4-6
{7}
н/о н/о +12.0 +7.0 71 +10 +10 тепло 1032.9 1026.9
16 21.03 З 3-6
{7}
н/о н/о +12.0 +6.9 71 +10 +10 тепло 1032.8 1026.8
19 21.03 ЮЗ 1-2
{3}
н/о н/о +10.1 +6.6 79 +10 +10 тепло 1032.8 1026.7
21 21.03 З 1-2
{3}
н/о н/о +8.8 +6.6 86 +8 +8 тепло 1033.1 1027.0
22 21.03 З 1-1
{2}
н/о н/о +7.8 +6.2 90 +7 +7 тепло 1033.4 1027.3
23 21.03 СЗ 1-2
{3}
н/о н/о +7.6 +6.4 92 +7 +7 тепло 1033.2 1027.1
00 22.03 З 1 н/о н/о +7.2 +6.0 92 +6 +6 тепло 1033.1 1027.0
01 22.03 СЗ 1-2
{2}
н/о н/о +6.4 +5.5 94 +5 +5 тепло 1033.2 1027.1
02 22.03 ЮЗ 1-2
{2}
н/о н/о +8.0 +6.6 91 +7 +7 тепло 1032.7 1026.6
03 22.03 З 2-3
{3}
н/о н/о +8.4 +6.7 89 +6 +6 тепло 1032.8 1026.7
04 22.03 З 2-3
{3}
н/о н/о +8.8 +6.8 87 +7 +7 тепло 1033.2 1027.1
05 22.03 СЗ 3-4
{5}
н/о н/о +8.7 +6.7 87 +6 +6 тепло 1033.4 1027.3
06 22.03 СЗ 2 н/о н/о +8.7 +6.9 88 +7 +7 тепло 1033.8 1027.7 +6.1 +11.1
07 22.03 С 2-3
{3}
н/о н/о +8.9 +6.8 87 +7 +7 тепло 1034.2 1028.1
08 22.03 СВ 1-2
{4}
н/о н/о +9.2 +7.2 87 +9 +9 тепло 1034.4 1028.3
09 22.03 ЮВ 2 н/о н/о +9.3 +7.0 86 +8 +8 тепло 1034.4 1028.3
10 22.03 ЮВ 1-3
{4}
н/о н/о +9.5 +7.1 85 +9 +9 тепло 1034.2 1028.1
11 22.03 Ю 2-4
{4}
н/о н/о +9.3 +6.8 84 +8 +8 тепло 1034.1 1028.0
12 22.03 Ю 2-4
{4}
н/о н/о +9.5 +6.9 84 +8 +8 по сезону 1033.4 1027.3
13 22.03 Ю 2-3
{4}
н/о н/о +9.9 +6.9 82 +8 +8 тепло 1032.9 1026.8
14 22.03 Ю 1-3
{3}
н/о н/о +10.4 +7.0 79 +10 +10 тепло 1032.2 1026.2
15 22.03 В 2-4
{4}
н/о н/о +10.4 +7.2 81 +9 +9 тепло 1031.7 1025.7
16 22.03 ЮВ 3-4
{4}
н/о н/о +9.8 +6.7 81 +8 +8 тепло 1031.4 1025.3
17 22.03 В 3-5
{5}
н/о н/о +9.4 +6.8 84 +7 +7 тепло 1031.0 1024.9
18 22.03 В 3 н/о н/о +8.2 +6.2 87 +5 +5 по сезону 1030.8 1024.7 +8.1 +10.7
19 22.03 В 3-5
{5}
н/о н/о +8.5 +6.7 88 +6 +6 тепло 1030.4 1024.3
20 22.03 ЮВ 3-4
{5}
н/о н/о +8.0 +6.6 91 +5 +5 тепло 1030.1 1024.0
21 22.03 ЮВ 3-4
{5}
н/о н/о +7.6 +6.4 92 +5 +5 по сезону 1029.8 1023.7
22 22.03 ЮВ 2-3
{4}
н/о н/о +7.3 +6.1 92 +5 +5 тепло 1029.4 1023.3
23 22.03 ЮВ 2-3
{4}
н/о н/о +6.7 +5.7 93 +4 +4 тепло 1028.6 1022.5
00 23.03 ЮВ 2 н/о н/о +6.4 +5.7 95 +4 +4 по сезону 1027.8 1021.7
01 23.03 ЮВ 2-3
{3}
н/о н/о +6.6 +5.9 95 +4 +4 тепло 1027.2 1021.1
02 23.03 ЮВ 2-3
{4}
н/о н/о +6.1 +5.3 95 +4 +4 тепло 1026.6 1020.5
03 23.03 ЮВ 1-2
{4}
н/о н/о +5.3 +4.6 95 +4 +4 по сезону 1026.3 1020.2
04 23.03 ЮВ 3-4
{5}
н/о н/о +5.2 +4.9 98 +2 +2 тепло 1026.3 1020.2
05 23.03 Ю 1-2
{4}
н/о н/о +4.7 +4.4 98 +3 +3 тепло 1026.0 1019.9
06 23.03 ЮЗ 1 н/о н/о +4.5 +4.1 97 +3 +3 по сезону 1025.8 1019.7 +4.5 +8.6
07 23.03 Ю 1-1
{2}
н/о н/о +5.9 +5.5 97 +5 +5 тепло 1025.8 1019.7
08 23.03 З 2-3
{3}
н/о н/о +9.7 +7.9 89 +8 +8 тепло 1025.8 1019.8
09 23.03 З 3 н/о н/о +12.9 +8.4 74 +12 +12 тепло 1025.6 1019.6
10 23.03 СЗ 3-4
{4}
н/о н/о +15.0 +8.5 65 +14 +14 тепло 1025.6 1019.7
11 23.03 СЗ 4-6
{7}
н/о н/о +16.5 +8.3 58 +16 +16 тепло 1025.6 1019.7
12 23.03 СЗ 6-7
{8}
н/о н/о +16.5 +9.0 61 +15 +15 тепло 1025.8 1019.9
13 23.03 СЗ 7-8
{11}
н/о н/о +12.7 +7.7 72 +10 +10 тепло 1026.9 1020.9
14 23.03 СЗ 6-8
{9}
н/о н/о +12.3 +7.1 71 +10 +10 тепло 1027.1 1021.1
15 23.03 СЗ 6-8
{11}
н/о н/о +11.6 +6.2 69 +9 +9 тепло 1027.4 1021.4
16 23.03 СЗ 5-9
{9}
н/о н/о +12.0 +6.2 68 +10 +10 тепло 1027.5 1021.5
17 23.03 СЗ 5-6
{7}
н/о н/о +11.7 +6.3 69 +9 +9 тепло 1027.5 1021.5
18 23.03 СЗ 5 н/о н/о +11.7 +6.3 69 +9 +9 тепло 1028.1 1022.1 +4.4 +17.1
19 23.03 СЗ 6-8
{8}
н/о н/о +11.3 +6.1 70 +8 +8 тепло 1028.5 1022.5
20 23.03 СЗ 6-7
{8}
н/о н/о +10.8 +6.6 75 +8 +8 тепло 1028.8 1022.8
21 23.03 СЗ 6-9
{9}
н/о н/о +10.5 +6.2 75 +7 +7 тепло 1029.0 1023.0
22 23.03 С 4-6
{8}
н/о н/о +9.7 +5.6 76 +7 +7 тепло 1029.2 1023.2
23 23.03 СЗ 4-6
{6}
н/о н/о +8.7 +5.6 81 +6 +6 тепло 1029.2 1023.1
00 24.03 СЗ 4 н/о н/о +7.5 +5.1 85 +4 +4 по сезону 1029.2 1023.1
01 24.03 С 3-3
{6}
н/о н/о +6.5 +3.6 82 +3 +3 тепло 1029.3 1023.2
02 24.03 С 3-3
{6}
н/о н/о +5.6 +2.0 78 +2 +2 тепло 1029.0 1022.9
03 24.03 С 3-4
{6}
н/о н/о +4.7 +0.9 76 +1 +1 по сезону 1028.9 1022.7
04 24.03 С 1-2
{4}
н/о н/о +3.8 +0.7 80 +2 +2 тепло 1028.9 1022.7
05 24.03 С 2-3
{4}
н/о н/о +3.2 +0.2 81 0 0 по сезону 1028.6 1022.4
06 24.03 С 2 н/о н/о +3.4 +0.6 82 +1 +1 по сезону 1028.5 1022.3 +3.1 +11.7
07 24.03 С 2-3
{4}
н/о н/о +5.8 +2.3 78 +3 +3 тепло 1028.1 1022.0
08 24.03 С 2-3
{3}
н/о н/о +6.7 +1.4 69 +5 +5 тепло 1027.9 1021.8
09 24.03 СВ 1 н/о н/о +7.6 +1.6 66 +7 +7 тепло 1027.4 1021.3
10 24.03 С 1-2
{3}
н/о н/о +9.3 +1.5 58 +9 +9 тепло 1026.6 1020.6
11 24.03 СВ 2-4
{4}
н/о н/о +9.8 +0.4 52 +9 +9 тепло 1026.0 1020.0
12 24.03 СЗ 2-4
{5}
н/о н/о +10.1 -1.2 45 +9 +9 по сезону 1025.1 1019.1
13 24.03 З 2-4
{4}
н/о н/о +11.7 -1.6 40 +11 +11 тепло 1023.9 1017.9
14 24.03 З 1-3
{6}
н/о н/о +11.4 -1.6 40 +12 +12 тепло 1023.0 1017.0
15 24.03 З 4-5
{6}
н/о н/о +10.6 -1.0 44 +9 +9 тепло 1022.5 1016.5
16 24.03 С 5-6
{7}
н/о н/о +9.3 0.0 52 +6 +6 тепло 1022.3 1016.3
17 24.03 СЗ 4-7
{7}
н/о н/о +8.8 +0.4 56 +6 +6 тепло 1021.6 1015.6
18 24.03 СЗ 3 н/о н/о +6.8 -1.0 58 +4 +4 по сезону 1021.5 1015.4 +3.4 +12.0
19 24.03 СЗ 3-4
{5}
н/о н/о +5.8 -0.9 62 +3 +3 тепло 1021.2 1015.1
20 24.03 З 2-3
{3}
н/о н/о +6.3 -0.5 62 +4 +4 тепло 1020.7 1014.6
21 24.03 З 2-3
{5}
н/о н/о +5.6 -1.0 62 +4 +4 по сезону 1020.0 1013.9
22 24.03 З 2-3
{4}
н/о н/о +4.9 -0.9 66 +3 +3 тепло 1019.6 1013.5
23 24.03 ЮЗ 2-3
{4}
н/о н/о +4.7 -0.6 68 +2 +2 тепло 1018.8 1012.7
00 25.03 ЮЗ 2 н/о н/о +4.2 -0.2 73 +2 +2 по сезону 1018.0 1011.9
01 25.03 З 3-3
{4}
н/о н/о +4.0 -0.2 74 +1 +1 тепло 1017.3 1011.2
02 25.03 ЮЗ 3-4
{5}
н/о н/о +3.8 -0.5 73 0 0 по сезону 1016.0 1009.9
03 25.03 ЮЗ 4-5
{5}
н/о н/о +3.2 -1.0 74 -1 -1 по сезону 1015.0 1008.9
04 25.03 ЮЗ 3-5
{5}
н/о н/о +3.4 -1.1 72 -0 -0 тепло 1014.0 1007.9
05 25.03 ЮЗ 4-7
{7}
н/о н/о +3.8 -0.8 72 -0 -0 по сезону 1013.0 1006.9
06 25.03 ЮЗ 5 н/о н/о +3.9 -0.2 75 -1 -1 по сезону 1012.2 1006.1 +3.2 +7.1 0.0
07 25.03 З 4-7
{9}
н/о н/о +2.1 +0.6 90 -3 -3 по сезону 1012.3 1006.2
08 25.03 З 5-8
{8}
н/о н/о +2.6 +1.4 92 -3 -3 прохладно 1012.4 1006.3
09 25.03 З 5 н/о н/о +3.6 +1.9 89 -2 -2 холодно 1012.8 1006.7 3
10 25.03 З 6-8
{9}
н/о н/о +5.2 +2.6 83 0 0 по сезону 1013.3 1007.2
11 25.03 З 5-8
{10}
н/о н/о +5.7 +2.4 79 +1 +1 прохладно 1013.5 1007.5
12 25.03 З 6-8
{11}
н/о н/о +7.2 +3.0 75 +3 +3 прохладно 1013.6 1007.6 0.0
13 25.03 З 7-10
{11}
н/о н/о +8.5 +2.2 65 +5 +5 тепло 1013.7 1007.7
14 25.03 З 7-11
{11}
н/о н/о +7.6 +0.7 62 +3 +3 по сезону 1014.3 1008.3
15 25.03 СЗ 5-7
{14}
н/о н/о +6.7 +2.7 76 +3 +3 прохладно 1015.0 1009.0 0.0
16 25.03 СЗ 6-8
{9}
н/о н/о +6.7 +0.7 66 +2 +2 по сезону 1015.8 1009.8
17 25.03 СЗ 5-8
{9}
н/о н/о +6.3 +1.1 69 +2 +2 по сезону 1016.9 1010.8
18 25.03 СЗ 5 н/о н/о +5.9 +0.8 70 +2 +2 прохладно 1018.0 1011.9 +1.5 +8.6
19 25.03 СЗ 7-10
{10}
н/о н/о +6.5 +0.4 65 +2 +2 тепло 1019.4 1013.3
20 25.03 С 6-8
{9}
н/о н/о +5.4 0.0 68 +1 +1 по сезону 1020.4 1014.3
21 25.03 СЗ 4-6
{10}
н/о н/о +4.5 +0.3 74 0 0 прохладно 1021.4 1015.3
22 25.03 СЗ 5-7
{7}
н/о н/о +4.0 +0.6 78 -1 -1 тепло 1022.4 1016.3
23 25.03 СЗ 4-5
{7}
н/о н/о +3.1 +0.3 82 -2 -2 по сезону 1023.0 1016.8
00 26.03 СЗ 5 н/о н/о +3.9 +1.4 84 -1 -1 по сезону 1023.7 1017.6
01 26.03 З 5-7
{7}
н/о н/о +3.2 +1.0 85 -2 -2 тепло 1023.7 1017.5
02 26.03 З 3-5
{6}
н/о н/о +2.6 +0.8 88 -2 -2 по сезону 1023.7 1017.5
03 26.03 З 3-4
{7}
н/о н/о +2.1 +0.6 90 -2 -2 прохладно 1023.9 1017.7
04 26.03 З 3-5
{6}
н/о н/о +2.2 +0.6 89 -2 -2 тепло 1023.5 1017.3
05 26.03 З 4-5
{5}
н/о н/о +2.7 +0.8 87 -2 -2 по сезону 1023.4 1017.2
06 26.03 З 8 н/о н/о +2.7 +1.4 91 -4 -4 прохладно 1024.0 1017.8 +2.0 +6.6
07 26.03 З 6-10
{12}
н/о н/о +4.0 +1.3 83 -1 -1 по сезону 1023.9 1017.8

 

Местоположение метеостанции Берлин (Германия): широта 52.47 долгота 13.40 высота над уровнем моря 50 м.

В архиве по умолчанию представлена погода в Берлине за последнюю неделю. Архивные данные за месяц целиком и за предыдущие месяцы, начиная с января 2011 года, Вы можете получить, выбрав интересующий диапазон дат из раскрывающегося списка и нажав кнопку "Ввод!".


*Определитесь, кто Вы:
робот инопланетянин человек

Внимание! Время в таблицах - всемирное. Для получения местного времени необходимо прибавить поправку, которая равна 1 ч.

Смотрите также архив погоды в соседних городах и на ближайших метеорологических станциях:

Погода в Берлин-Далеме (Германия) (7 км)
Погода в Берлин-Тегеле (Германия) (12 км)
Погода в Берлин-Шёнефельде (Германия) (13 км)
Погода в Потсдаме (Германия) (25 км)
Погода в Баруте (Германия) (42 км)
Погода в Линденберге (Германия) (56 км)
Погода в Нойруппине (Германия) (62 км)
Погода в Ангермюнде (Германия) (74 км)
Погода в Визенбурге (Германия) (74 км)
Погода в Маншно (Германия) (78 км)

Пояснения к столбцам:

Ветер - указаны скорость ветра в м/с - средняя за 10 мин, порывы в срок и между сроками (в фигурных скобках) и направление, откуда дует ветер: С - северный, СВ - северо-восточный, В - восточный, ЮВ - юго-восточный, Ю - южный, ЮЗ - юго-западный, З - западный, СЗ - северо-западный.
Видимость - горизонтальная дальность видимости в метрах или километрах. При видимости от 1 до 10 км при отсутствии осадков обычно наблюдается дымка, при ухудшении видимости до 1 км и менее - туман. В сухую погоду видимость может ухудшаться дымом, пылью или мглою.
Явления - указаны атмосферные явления, наблюдавшиеся в срок или в последний час перед сроком; фигурными скобками обозначены явления, наблюдавшиеся между сроками (за 1-3 часа до срока); квадратными скобками обозначены град или гололедные отложения с указанием их диаметра в мм.
Облачность - указаны через наклонную черту общая и нижняя облачность в баллах и высота нижней границы облаков в метрах; квадратными скобками обозначены формы облаков: Ci - перистые, Cs - перисто-слоистые, Cc - перисто-кучевые, Ac - высококучевые, As - высокослоистые, Sc - слоисто-кучевые, Ns - слоисто-дождевые, Cu - кучевые, Cb - кучево-дождевые. Подробнее классификацию облаков см. в Атласе облаков (PDF).
T - Температура воздуха - температура, измеренная на высоте 2 м над землей.
Td - Температура точки росы - температура, при понижении до которой содержащийся в воздухе водяной пар достигнет насыщения.
f - Относительная влажность воздуха - влажноcть воздуха, измеренная на высоте 2 м над землей.
Te - Эффективная температура - температура, которую ощущает одетый по сезону человек в тени. Характеристика душности погоды. При расчете учитывается влияние влажности воздуха и скорости ветра на теплоощущения человека.
Tes - Эффективная температура на солнце - температура, которую ощущает человек, с поправкой на солнечный нагрев. Характеристика знойности погоды. Зависит от высоты солнца над горизонтом, облачности и скорости ветра. Ночью, в пасмурную погоду, а также при ветре 12 м/с и более поправка равна нулю.
P - Атмосферное давление - приведенное к уровню моря атмосферное давление.
Po - Атмосферное давление - измеренное на уровне метеостанции атмосферное давление.
Tmin - Минимальная температура - минимум температуры воздуха на высоте 2 м над землей.
Tmax - Максимальная температура - максимум температуры воздуха на высоте 2 м над землей.
R - Количество осадков - Количество выпавших осадков за период времени, мм. При наведении курсора мыши на число - период времени, за который выпало указанное количество осадков.
R24 - Количество осадков - Количество выпавших осадков за 24 часа, мм.
S - Снежный покров - Высота снежного покрова, см. При наведении курсора мыши на число - состояние снежного покрова и степень покрытия местности в баллах.